Regional Weather Roundup
Issued by NWS Bismarck, ND

Home | Current Version | Previous Version | Text Only | Print | Product List | Glossary On
Versions: 1 2 3 4 5 6 7 8 9 10 11 12 13 14 15 16 17 18 19 20 21 22 23 24 25 26 27 28 29 30 31 32 33 34 35 36 37 38 39 40 41 42 43 44 45 46 47 48 49 50
000
ASUS43 KBIS 010120
RWRBIS

NWR BROADCAST TEXT
NATIONAL WEATHER SERVICE BISMARCK ND
800 PM CDT TUE SEP 30 2014

NOTE: "FAIR" INDICATES FEW OR NO CLOUDS BELOW 12,000 FEET WITH NO
SIGNIFICANT WEATHER AND/OR OBSTRUCTIONS TO VISIBILITY.


CITY           SKY/WX    TMP DP  RH WIND       PRES   REMARKS
WILLISTON      LGT RAIN  51  50  96 E6        29.52F
MINOT          LGT RAIN  51  50  96 E8        29.50F FOG
MINOT AFB      CLOUDY    52  52 100 E10       29.50F
BISMARCK       LGT RAIN  55  54  96 E14       29.36F FOG
DICKINSON      CLOUDY    51  50  96 NW10      29.47R FOG
GARRISON         N/A     51  50  96 E15       29.45F
HETTINGER ARPT CLOUDY    53  51  93 W15       29.48R
JAMESTOWN      CLOUDY    53  51  93 E22G30    29.51F
BEACH          LGT RAIN  50  50 100 NW7       29.53S
CARRINGTON     CLOUDY    50  50 100 E20G29    29.51F
CROSBY           N/A    N/A N/A N/A MISG        N/A
HARVEY         LGT RAIN  50  50 100 E22G30    29.48F
HAZEN          LGT RAIN  50  50 100 MISG      29.44F
LINTON         CLOUDY    57  57 100 S23G32    29.38S
MANDAN         RAIN      54  54 100 E8        29.37F
OAKES            N/A     59  59 100 SE29G38   29.53S
RUGBY          CLOUDY    52  52 100 SE22G30   29.54S
STANLEY        CLOUDY    48  48 100 E6        29.51F FOG
TIOGA          FAIR      48  48 100 E7        29.55F FOG
WATFORD CITY   CLOUDY    50  50 100 CALM      29.49S FOG
$$

CITY           SKY/WX    TMP DP  RH WIND       PRES   REMARKS
GRAND FORKS    CLOUDY    59  47  64 SE17G26   29.64F
GRAND FORKS AF CLOUDY    57  52  83 SE10      29.64F
DEVILS LAKE    CLOUDY    55  46  71 SE25G32   29.56S
FARGO          CLOUDY    59  48  67 SE18G28   29.64S
CANDO          CLOUDY    54  48  82 SE18G26   29.58F
CAVALIER       CLOUDY    55  48  76 E8        29.64F
GRAFTON        CLOUDY    55  46  71 SE13      29.64F
GWINNER        MOCLDY    55  54  94 SE24G31   29.59F
LANGDON        CLOUDY    52  46  82 E16G23    29.61F
ROLLA          CLOUDY    50  50 100 SE15      29.59F
WALHALLA         N/A     54  54 100 E8        29.65F
$$

CITY           SKY/WX    TMP DP  RH WIND       PRES   REMARKS
ABERDEEN       CLOUDY    66  52  60 S12       29.53R
MOBRIDGE       CLOUDY    62  54  74 SW14G25   29.42R
BUFFALO          N/A     54  51  90 W17       29.49R
RAPID CITY     MOCLDY    60  43  53 W10       29.64R
GLASGOW        LGT RAIN  55  51  86 W3        29.55S FOG
SIDNEY         CLOUDY    54  52  94 NW5       29.53S
WOLF POINT     CLOUDY    57  53  86 CALM      29.52F
GLENDIVE       CLOUDY    54  54 100 NW5       29.56R
MILES CITY     LGT RAIN  57  50  77 NW8       29.58R
BAKER          RAIN      53  52  96 NW10      29.55R
$$

CITY           SKY/WX    TMP DP  RH WIND       PRES   REMARKS
BILLINGS       CLOUDY    59  38  45 NW15      29.71R
GREAT FALLS    CLOUDY    50  47  89 NW8       29.80R
REGINA         LGT RAIN  50  50 100 SE10      29.54F
ESTEVAN        LGT RAIN  48  48 100 SE7       29.55F
$$




USA.gov is the U.S. government's official web portal to all federal, state and local government web resources and services.